Weather in Sukhodol

Russia / Samara Oblast     53°54′08″N   51°12′55″E
temp.,
°C
wind,
m/s
gust,
m/s
humid.,
%
clouds,
%
prec.,
mm/h
press.,
hPa
HPBL,
m
3 march, wed
wed301:00−2w249798 0.4 100177
04:00−6w239792 0.4 100228
07:00−7w239763 0.0 100126
10:00−5w379651 0.1 1002282
13:00−3wnw589298 0.0 1002569
16:00−4wnw698998 0.1 1003830
19:00−6w51194100 0.1 1004453
22:00−7wnw5119396 0.2 1006476
4 march, thu
thu401:00−8wnw499498 0.1 1006280
04:00−11wsw449694 0.1 100673
07:00−11sw4109667 0.1 1005255
10:00−7sw6129483 0.4 1004452
13:00−3sw81392100 0.4 1002862
16:00−2sw91496100 1.1 1000932
19:000wsw91594100 0.9 998967
22:000wsw81595100 1.2 1000861
5 march, fri
fri501:00−1w4898100 1.4 1000458
04:00−2w1498100 3.3 1000243
07:00−2sw51097100 2.4 1000538
10:00−1sw61097100 4.2 999628
13:000ssw510100100 1.3 998565
16:00−1nw71197100 4.1 1000478
19:00−6nw5109299 0.1 1005424
22:00−12nw359071 0.1 101089
6 march, sat
sat601:00−15nw229727 0.0 101320
04:00−17wnw119959 0.0 101420
07:00−17e119798 0.0 101520
10:00−13ese129199 0.0 1014137
13:00−10ene2384100 0.0 1013292
16:00−8ene2285100 0.0 1011299
19:00−15nne119268 0.0 101021
22:00−17wnw119334 0.0 101020
7 march, sun
sun701:00−17wsw22940 0.0 101020
04:00−16w349847 0.1 101172
07:00−19w379897 0.0 1012121
10:00−17w479383 0.1 1014252
13:00−13sw46928 0.0 1014318
16:00−10ssw699046 0.0 1012665
19:00−12ssw71489100 0.0 1011486
22:00−12ssw81690100 0.0 1008537